sat.trackr.live / text

‹ back to catalog

HULIANWANG DIGUI-167

NORAD 68659 · 2026-076D

PAYLOAD ACTIVE UNKNOWN

§ Identity

Operator
Country
PRC
Launch date
2026-04-08
Launch site
TAISC
Launch vehicle
Mass (kg)
RCS (m²)

External: N2YO · Heavens-Above · Gunter

§ Orbital elements

Epoch: 2026-05-24T13:32:44.756160Z

Period
107.86 min
Inclination
86.4994°
Eccentricity
0.0003030
Mean motion
13.35106587 rev/d
Perigee alt
1,125.3 km
Apogee alt
1,129.8 km
Semi-major
7,505.7 km
B*
-5.7326e-5
RAAN
51.8746°
Arg perigee
67.4255°
Mean anomaly
292.7206°
Rev number
624

§ Raw data

HULIANWANG DIGUI-1671 68659U 26076D   26144.56440690 -.00000014  00000+0 -57326-4 0  99992 68659  86.4994  51.8746 0003030  67.4255 292.7206 13.35106587  6241

JSON: /api/v1/satellites/68659 · /tle

For live sub-satellite position, see the globe view (requires WebGL).

§ Visibility from observer

Set your observer location to see the next 7 days of passes ≥ 10°. The values pass through the URL so the page stays shareable.

No JS? Fill the form by hand. The geolocation button needs JavaScript.